This is the latest recevied weather packets stored in our database for station/object K7YVO. If no packets are shown the sender has not sent any weather packets the latest 10 day(s).
| Time | Temp. | Humidity | Pressure | Rain* | Wind** | Luminosity | Snow |
|---|---|---|---|---|---|---|---|
| 1778003464 | 12.22° C | 92% | 1018.7 hPa | 0 mm | - | 131 W/m² | - |
| 1778003161 | 11.67° C | 92% | 1018.8 hPa | 0 mm | - | 126 W/m² | - |
| 1778002857 | 12.22° C | 91% | 1018.7 hPa | 0 mm | - | 94 W/m² | - |
| 1778002554 | 11.67° C | 92% | 1018.7 hPa | 0 mm | - | 80 W/m² | - |
| 1778002251 | 12.22° C | 91% | 1018.7 hPa | 0 mm | - | 83 W/m² | - |
| 1778001948 | 12.22° C | 92% | 1018.7 hPa | 0 mm | - | 73 W/m² | - |
| 1778001645 | 12.22° C | 92% | 1018.6 hPa | 0 mm | - | 72 W/m² | - |
| 1778001345 | 12.22° C | 92% | 1018.5 hPa | 0 mm | - | 101 W/m² | - |
| 1778001042 | 12.22° C | 92% | 1018.5 hPa | 0 mm | - | 109 W/m² | - |
| 1778000739 | 12.22° C | 92% | 1018.5 hPa | 0 mm | - | 89 W/m² | - |
| 1778000435 | 11.67° C | 93% | 1018.5 hPa | 0 mm | - | 90 W/m² | - |
| 1778000131 | 11.67° C | 93% | 1018.4 hPa | 0 mm | - | 109 W/m² | - |
| 1777999826 | 11.67° C | 95% | 1018.4 hPa | 0 mm | - | 112 W/m² | - |
| 1777999523 | 11.11° C | 94% | 1018.5 hPa | 0 mm | - | 87 W/m² | - |
| 1777999221 | 11.11° C | 94% | 1018.5 hPa | 0 mm | - | 80 W/m² | - |
| 1777998919 | 11.11° C | 94% | 1018.4 hPa | 0 mm | - | 76 W/m² | - |
| 1777998615 | 11.11° C | 94% | 1018.2 hPa | 0 mm | - | 75 W/m² | - |
| 1777998309 | 11.11° C | 95% | 1018.3 hPa | 0 mm | - | 60 W/m² | - |
| 1777998006 | 11.11° C | 95% | 1018.3 hPa | 0 mm | - | 60 W/m² | - |
| 1777997702 | 11.11° C | 95% | 1018.3 hPa | 0 mm | - | 72 W/m² | - |
| 1777997400 | 11.11° C | 96% | 1018.2 hPa | 0 mm | - | 76 W/m² | - |
| 1777997098 | 11.11° C | 96% | 1018.2 hPa | 0 mm | - | 74 W/m² | - |
| 1777996794 | 11.11° C | 97% | 1018.3 hPa | 0 mm | - | 80 W/m² | - |
| 1777996491 | 11.11° C | 97% | 1018.4 hPa | 0 mm | - | 66 W/m² | - |
| 1777996187 | 11.11° C | 97% | 1018.1 hPa | 0 mm | - | 56 W/m² | - |
* Rain latest hour (hover to see other rain measurements)
** Current wind speed in m/s (hover to see current wind gust speed)